DMSP 5D-2 F13 DEB, 42271

Orbit data source: Space-Track

DMSP 5D-2 F13 DEB, 42271 is space debris in SSO originally from a launch on Fri, 24 Mar 1995 UTC launched from the Air Force Western Test Range (AFWTR). Debris objects in space refer to the collection of defunct objects orbiting the Earth. Examples of debris include non-operational satellites, rocket bodies, and fragments generated from explosions, collisions, or faulty payload assembly.

Loading next visibility...
Identifier
42271, 1995-015GM
Orbit
SSO
Country
Flag of USUS
Related business
Manufacturer
Unknown
Mission
Spacecraft
Bus & Motor
Unknown
Mass
Unknown
Launch date (UTC)
1995-03-24 (31 years ago)
Launch vehicle
Unknown
Launch site
Air Force Western Test Range (AFWTR)
Object type
Payload
Rocket body
Debris
Shape & HBR
Unknown shape, 0.1 m
Radar Cross Section
Small (<0.1 m²)

Expand to show TLE details & history
Last TLE update: 21 hours ago

TLE from 21 hours ago
0 DMSP 5D-2 F13 DEB
1 42271U 95015GM  26253.51574875  .00049181  00000-0  39562-2 0  9996
2 42271  98.6787 346.8818 0002882 209.7672 150.3385 14.99785567585031
Epoch: 2026-09-10T12:22Z
TLE epoch observation values (Epoch: 2026-09-10T12:22:40.692Z)
Latitude
-0.00003°
Longitude
171.65992°
Altitude
572.322 km
Speed
7.574 km/s
True Right ascension
23h 07m 31s
True Declination
0° 00' 00"
Sunlit
Object was in full shadow at epoch
Visualization orbit readout
Latitude
Unknown
Longitude
Unknown
Altitude
Unknown
Speed
Unknown
Apparent Right ascension
Unknown
Apparent Declination
Unknown
Sunlit
N/A
Visualization observer readout
Local Sidereal Time
01:16:37
Azimuth
Unknown
Elevation
Unknown
Doppler factor
Unknown
Orbital elements
Apogee altitude
566.611 km
Perigee altitude
562.609 km
Semi-major axis
6,942.747 km
Eccentricity
0.00029
Inclination
98.6787°
RAAN
346.8818°
Arg. of periapsis
209.7672°
True anomaly
150.35484°
Mean anomaly
150.3385°
Eccentric anomaly
150.34667°
Mean motion
3.75186 °/min
Orbital period
95.95 mins
BSTAR
0.0039562
Loading maneuver chart data...
Computing Atmospheric mass density...

Documentation

Showing up to 5 results
|